TimePDT,TemperatureF,Dew PointF,Humidity,Sea Level PressureIn,VisibilityMPH,Wind Direction,Wind SpeedMPH,Gust SpeedMPH,PrecipitationIn,Events,Conditions,WindDirDegrees,DateUTC
12:00 AM,60.8,59.0,94,30.04,12.0,ESE,8.1,-,N/A,,Clear,110,2013-09-09 07:00:00
1:00 AM,60.8,57.2,88,30.05,12.0,ESE,4.6,-,N/A,,Clear,120,2013-09-09 08:00:00
2:00 AM,59.0,57.2,94,30.05,12.0,SSW,5.8,-,N/A,,Clear,200,2013-09-09 09:00:00
3:00 AM,59.0,57.2,94,30.04,12.0,SE,4.6,-,N/A,,Clear,140,2013-09-09 10:00:00
4:00 AM,57.2,55.4,94,30.05,12.0,ESE,2.3,-,N/A,,Clear,110,2013-09-09 11:00:00
5:00 AM,57,56,94,30.06,12,East,4.6,,,,,100,2013-09-09 12:00:00
5:00 AM,57.2,55.4,94,30.05,12.0,East,4.6,-,N/A,,Clear,90,2013-09-09 12:00:00
6:00 AM,57.2,55.4,94,30.06,12.0,SE,3.5,-,N/A,,Partly Cloudy,140,2013-09-09 13:00:00
6:23 AM,55.4,55.4,100,30.06,10.0,SE,4.6,-,N/A,,Partly Cloudy,130,2013-09-09 13:23:00
7:00 AM,55.4,53.6,94,30.05,3.0,East,4.6,-,N/A,Fog,Patches of Fog,100,2013-09-09 14:00:00
7:03 AM,55.4,55.4,100,30.06,1.0,East,4.6,-,N/A,Fog,Patches of Fog,100,2013-09-09 14:03:00
7:07 AM,55.4,55.4,100,30.06,0.5,East,5.8,-,N/A,Fog,Patches of Fog,100,2013-09-09 14:07:00
7:18 AM,55.4,53.6,94,30.06,0.2,East,4.6,-,N/A,Fog,Fog,90,2013-09-09 14:18:00
8:00 AM,55.4,55.4,100,30.07,0.2,East,4.6,-,N/A,Fog,Fog,90,2013-09-09 15:00:00
8:55 AM,57.2,57.2,100,30.08,0.5,SSE,4.6,-,N/A,Fog,Fog,150,2013-09-09 15:55:00
9:00 AM,57.2,57.2,100,30.08,0.5,SE,3.5,-,N/A,Fog,Fog,140,2013-09-09 16:00:00
9:08 AM,59.0,57.2,94,30.08,0.8,SE,2.3,-,N/A,,Mostly Cloudy,140,2013-09-09 16:08:00
9:20 AM,59.0,59.0,100,30.08,1.5,South,2.3,-,N/A,,Mostly Cloudy,170,2013-09-09 16:20:00
9:53 AM,62.6,60.8,94,30.08,3.0,South,3.5,-,N/A,,Scattered Clouds,170,2013-09-09 16:53:00
10:00 AM,60.8,59.0,94,30.08,4.0,SSW,2.3,-,N/A,,Partly Cloudy,210,2013-09-09 17:00:00
11:00 AM,63,60,85,30.08,6,WSW,6.9,,,,Partly Cloudy,240,2013-09-09 18:00:00
11:00 AM,62.6,59.0,88,30.08,6.0,WSW,6.9,-,N/A,,Scattered Clouds,240,2013-09-09 18:00:00
12:00 PM,66.2,60.8,83,30.08,10.0,WSW,6.9,-,N/A,,Scattered Clouds,240,2013-09-09 19:00:00
1:00 PM,66.2,60.8,83,30.06,15.0,West,8.1,-,N/A,,Scattered Clouds,270,2013-09-09 20:00:00
2:00 PM,68.0,62.6,83,30.05,20.0,WNW,9.2,-,N/A,,Scattered Clouds,300,2013-09-09 21:00:00
3:00 PM,69.8,60.8,73,30.04,30.0,WNW,11.5,-,N/A,,Scattered Clouds,290,2013-09-09 22:00:00
4:00 PM,69.8,60.8,73,30.02,30.0,NW,11.5,-,N/A,,Partly Cloudy,310,2013-09-09 23:00:00
5:00 PM,69,60,66,30.02,28,WNW,10.4,,,,Scattered Clouds,290,2013-09-10 00:00:00
5:00 PM,69.8,60.8,73,30.01,30.0,WNW,11.5,-,N/A,,Scattered Clouds,290,2013-09-10 00:00:00
6:00 PM,68.0,60.8,78,30.00,30.0,WNW,10.4,-,N/A,,Scattered Clouds,290,2013-09-10 01:00:00
7:00 PM,66.2,60.8,83,29.99,30.0,WNW,6.9,-,N/A,,Partly Cloudy,300,2013-09-10 02:00:00
8:00 PM,62.6,59.0,88,30.00,30.0,WNW,5.8,-,N/A,,Partly Cloudy,300,2013-09-10 03:00:00
9:00 PM,62.6,60.8,94,30.01,15.0,WNW,2.3,-,N/A,,Clear,300,2013-09-10 04:00:00
10:00 PM,62.6,59.0,88,30.01,15.0,WSW,3.5,-,N/A,,Clear,250,2013-09-10 05:00:00
11:00 PM,62,59,85,30.01,15,West,4.6,,,,,280,2013-09-10 06:00:00
11:00 PM,60.8,59.0,94,30.01,15.0,WNW,4.6,-,N/A,,Clear,290,2013-09-10 06:00:00